Hourly Weather Runovskiy

Today, 18 April, Sunday

Time Temperature Precipitation Wind Pressure Humidity
00:00 +11°C° 0.1 mm 3 mps 758 mmHg 78%
01:00 +10°C° 0 mm 3 mps 758 mmHg 80%
02:00 +8°C° 0 mm 4 mps 757 mmHg 82%
03:00 +8°C° 0 mm 4 mps 757 mmHg 86%
04:00 +9°C° 0 mm 3 mps 757 mmHg 88%
05:00 +9°C° 0 mm 3 mps 757 mmHg 90%
06:00 +9°C° 0 mm 3 mps 757 mmHg 92%
07:00 +10°C° 0 mm 4 mps 757 mmHg 84%
08:00 +11°C° 0 mm 4 mps 757 mmHg 77%
09:00 +13°C° 0 mm 4 mps 757 mmHg 69%
10:00 +14°C° 0 mm 5 mps 757 mmHg 63%
11:00 +14°C° 0 mm 5 mps 757 mmHg 57%
12:00 +15°C° 0 mm 5 mps 757 mmHg 51%
13:00 +16°C° 0 mm 5 mps 756 mmHg 49%
14:00 +16°C° 0 mm 5 mps 756 mmHg 47%
15:00 +16°C° 0 mm 5 mps 756 mmHg 45%
16:00 +17°C° 0 mm 4 mps 756 mmHg 49%
17:00 +16°C° 0 mm 3 mps 756 mmHg 54%
18:00 +14°C° 0 mm 3 mps 756 mmHg 58%
19:00 +13°C° 0 mm 3 mps 756 mmHg 63%
20:00 +13°C° 0 mm 3 mps 756 mmHg 67%
21:00 +13°C° 0 mm 2 mps 756 mmHg 72%
22:00 +12°C° 0 mm 2 mps 756 mmHg 76%
23:00 +12°C° 0 mm 2 mps 756 mmHg 80%

Tomorrow, 19 April, Monday

Time Temperature Precipitation Wind Pressure Humidity
00:00 +10°C° 0 mm 2 mps 756 mmHg 84%
01:00 +10°C° 0 mm 2 mps 756 mmHg 86%
02:00 +10°C° 0 mm 2 mps 756 mmHg 87%
03:00 +9°C° 0 mm 2 mps 756 mmHg 88%
04:00 +9°C° 0 mm 2 mps 756 mmHg 86%
05:00 +10°C° 0 mm 2 mps 756 mmHg 84%
06:00 +10°C° 0 mm 2 mps 756 mmHg 82%
07:00 +12°C° 0 mm 2 mps 756 mmHg 76%
08:00 +13°C° 0 mm 2 mps 756 mmHg 70%
09:00 +14°C° 0 mm 2 mps 756 mmHg 64%
10:00 +15°C° 0 mm 2 mps 756 mmHg 59%
11:00 +16°C° 0 mm 1 mps 756 mmHg 54%
12:00 +18°C° 0 mm 1 mps 755 mmHg 48%
13:00 +18°C° 0 mm 1 mps 755 mmHg 47%
14:00 +18°C° 0 mm 1 mps 755 mmHg 45%
15:00 +19°C° 0 mm 1 mps 755 mmHg 43%
16:00 +17°C° 0 mm 2 mps 755 mmHg 49%
17:00 +16°C° 0 mm 3 mps 756 mmHg 55%
18:00 +14°C° 0 mm 4 mps 756 mmHg 61%
19:00 +13°C° 0 mm 4 mps 756 mmHg 66%
20:00 +12°C° 0 mm 5 mps 756 mmHg 72%
21:00 +10°C° 0 mm 6 mps 757 mmHg 77%
22:00 +10°C° 0.1 mm 6 mps 757 mmHg 78%
23:00 +9°C° 0.1 mm 7 mps 757 mmHg 78%

Day after tomorrow, 20 April, Tuesday

Time Temperature Precipitation Wind Pressure Humidity
00:00 +8°C° 0.1 mm 7 mps 757 mmHg 79%
01:00 +8°C° 0 mm 7 mps 757 mmHg 79%
02:00 +6°C° 0 mm 7 mps 758 mmHg 79%
03:00 +5°C° 0 mm 8 mps 758 mmHg 78%
04:00 +5°C° 0 mm 8 mps 758 mmHg 78%
05:00 +4°C° 0 mm 8 mps 758 mmHg 78%
06:00 +4°C° 0 mm 8 mps 758 mmHg 78%
07:00 +3°C° 0 mm 9 mps 759 mmHg 74%
08:00 +5°C° 0 mm 9 mps 759 mmHg 71%
09:00 +6°C° 0 mm 10 mps 759 mmHg 67%
10:00 +7°C° 0 mm 10 mps 759 mmHg 64%
11:00 +7°C° 0 mm 10 mps 759 mmHg 61%
12:00 +8°C° 0 mm 11 mps 759 mmHg 58%
13:00 +9°C° 0 mm 10 mps 759 mmHg 57%
14:00 +11°C° 0 mm 10 mps 758 mmHg 57%
15:00 +11°C° 0 mm 10 mps 758 mmHg 56%
16:00 +11°C° 0 mm 10 mps 758 mmHg 58%
17:00 +9°C° 0 mm 11 mps 758 mmHg 59%
18:00 +8°C° 0 mm 11 mps 757 mmHg 61%
19:00 +8°C° 0 mm 10 mps 758 mmHg 59%
20:00 +8°C° 0 mm 10 mps 758 mmHg 58%
21:00 +7°C° 0 mm 10 mps 758 mmHg 57%
22:00 +7°C° 0 mm 10 mps 758 mmHg 56%
23:00 +7°C° 0 mm 10 mps 758 mmHg 54%

21 April, Wednesday

Time Temperature Precipitation Wind Pressure Humidity
00:00 +7°C° 0 mm 10 mps 757 mmHg 53%
01:00 +6°C° 1.1 mm 10 mps 758 mmHg 61%
02:00 +5°C° 1.1 mm 10 mps 758 mmHg 70%
03:00 +2°C° 1.1 mm 9 mps 758 mmHg 78%
04:00 +2°C° 2.8 mm 10 mps 758 mmHg 82%
05:00 +1°C° 2.8 mm 10 mps 758 mmHg 86%
06:00 +1°C° 2.8 mm 10 mps 758 mmHg 89%
07:00 +1°C° 2.7 mm 10 mps 758 mmHg 90%
08:00 -1°C° 2.7 mm 11 mps 758 mmHg 91%
09:00 -1°C° 2.7 mm 11 mps 758 mmHg 91%
10:00 0°C° 1.4 mm 10 mps 759 mmHg 92%
11:00 +1°C° 1.4 mm 10 mps 759 mmHg 92%
12:00 +1°C° 1.4 mm 9 mps 759 mmHg 93%
13:00 +1°C° 0.6 mm 9 mps 759 mmHg 93%
14:00 +1°C° 0.6 mm 8 mps 759 mmHg 92%
15:00 +1°C° 0.6 mm 8 mps 759 mmHg 92%
16:00 +1°C° 0.1 mm 8 mps 760 mmHg 93%
17:00 +2°C° 0.1 mm 7 mps 760 mmHg 93%
18:00 +3°C° 0.1 mm 7 mps 760 mmHg 93%
19:00 +3°C° 0 mm 6 mps 760 mmHg 94%
20:00 +3°C° 0 mm 6 mps 761 mmHg 95%
21:00 +3°C° 0 mm 6 mps 761 mmHg 95%
22:00 +3°C° 0 mm 5 mps 761 mmHg 96%
23:00 +5°C° 0 mm 5 mps 761 mmHg 96%

22 April, Thursday

Time Temperature Precipitation Wind Pressure Humidity
00:00 +5°C° 0 mm 4 mps 761 mmHg 97%
01:00 +5°C° 0 mm 4 mps 762 mmHg 97%
02:00 +5°C° 0 mm 4 mps 762 mmHg 97%
03:00 +5°C° 0 mm 4 mps 762 mmHg 97%
04:00 +5°C° 0 mm 4 mps 762 mmHg 97%
05:00 +5°C° 0 mm 3 mps 762 mmHg 97%
06:00 +5°C° 0 mm 3 mps 762 mmHg 97%
07:00 +6°C° 0 mm 4 mps 763 mmHg 95%
08:00 +7°C° 0 mm 4 mps 763 mmHg 93%
09:00 +7°C° 0 mm 4 mps 763 mmHg 92%
10:00 +8°C° 0 mm 4 mps 763 mmHg 88%
11:00 +9°C° 0 mm 5 mps 763 mmHg 84%
12:00 +10°C° 0 mm 5 mps 763 mmHg 80%
13:00 +10°C° 0 mm 5 mps 763 mmHg 77%
14:00 +10°C° 0 mm 5 mps 763 mmHg 75%
15:00 +10°C° 0 mm 6 mps 763 mmHg 72%
16:00 +9°C° 0 mm 6 mps 763 mmHg 76%
17:00 +8°C° 0 mm 5 mps 763 mmHg 81%
18:00 +7°C° 0 mm 5 mps 763 mmHg 86%
19:00 +6°C° 0 mm 5 mps 764 mmHg 87%
20:00 +6°C° 0 mm 4 mps 764 mmHg 87%
21:00 +5°C° 0 mm 4 mps 764 mmHg 88%
22:00 +5°C° 0 mm 3 mps 764 mmHg 89%
23:00 +5°C° 0 mm 3 mps 763 mmHg 89%

23 April, Friday

Time Temperature Precipitation Wind Pressure Humidity
00:00 +4°C° 0 mm 3 mps 763 mmHg 89%
01:00 +4°C° 0 mm 3 mps 763 mmHg 90%
02:00 +5°C° 0 mm 2 mps 763 mmHg 90%
03:00 +5°C° 0 mm 2 mps 763 mmHg 90%
04:00 +4°C° 0 mm 3 mps 763 mmHg 90%
05:00 +4°C° 0 mm 3 mps 763 mmHg 89%
06:00 +5°C° 0 mm 3 mps 763 mmHg 88%
07:00 +5°C° 0 mm 3 mps 763 mmHg 88%
08:00 +5°C° 0 mm 3 mps 763 mmHg 87%
09:00 +7°C° 0 mm 3 mps 763 mmHg 87%
10:00 +7°C° 0 mm 3 mps 762 mmHg 85%
11:00 +8°C° 0 mm 3 mps 762 mmHg 83%
12:00 +8°C° 0 mm 3 mps 762 mmHg 81%
13:00 +8°C° 0 mm 3 mps 762 mmHg 79%
14:00 +8°C° 0 mm 4 mps 761 mmHg 77%
15:00 +8°C° 0 mm 4 mps 761 mmHg 75%
16:00 +8°C° 0 mm 4 mps 761 mmHg 78%
17:00 +8°C° 0 mm 4 mps 761 mmHg 80%
18:00 +7°C° 0 mm 4 mps 761 mmHg 83%
19:00 +7°C° 0 mm 4 mps 760 mmHg 85%
20:00 +7°C° 0 mm 4 mps 760 mmHg 87%
21:00 +6°C° 0 mm 4 mps 760 mmHg 89%
22:00 +6°C° 0.1 mm 4 mps 760 mmHg 90%
23:00 +6°C° 0.1 mm 4 mps 759 mmHg 91%
Show more